Time,TemperatureF,DewpointF,PressureIn,WindDirection,WindDirectionDegrees,WindSpeedMPH,WindSpeedGustMPH,Humidity,HourlyPrecipIn,Conditions,Clouds,dailyrainin,SoftwareType,DateUTC
2013-07-05 00:00:00,54.0,-99.9,-100.00,North,-999,-999.0,-999.0,-999,-99.99,,,0.00,,2013-07-05 06:00:00,
2013-07-05 00:53:00,54.0,-99.9,-100.00,North,-999,-999.0,-999.0,-999,-99.99,,,0.00,,2013-07-05 06:53:00,
2013-07-05 01:00:00,54.0,-99.9,-100.00,North,-999,-999.0,-999.0,-999,-99.99,,,-99.99,,2013-07-05 07:00:00,
2013-07-05 03:00:00,52.0,-99.9,-100.00,North,-999,-999.0,-999.0,-999,-99.99,,,0.00,,2013-07-05 09:00:00,
2013-07-05 04:00:00,53.0,-99.9,-100.00,North,-999,-999.0,-999.0,-999,-99.99,,,0.00,,2013-07-05 10:00:00,
2013-07-05 04:59:00,53.0,-99.9,-100.00,North,-999,-999.0,-999.0,-999,-99.99,,,0.00,,2013-07-05 10:59:00,
2013-07-05 05:00:00,53.0,-99.9,-100.00,North,-999,-999.0,-999.0,-999,-99.99,,,0.00,,2013-07-05 11:00:00,
2013-07-05 06:00:00,51.0,-99.9,-100.00,North,-999,-999.0,-999.0,-999,-99.99,,,0.00,,2013-07-05 12:00:00,
2013-07-05 07:00:00,52.0,-99.9,-100.00,North,-999,-999.0,-999.0,-999,-99.99,,,0.00,,2013-07-05 13:00:00,
2013-07-05 08:00:00,55.0,-99.9,-100.00,North,-999,-999.0,-999.0,-999,-99.99,,,0.00,,2013-07-05 14:00:00,
2013-07-05 08:59:00,55.0,-99.9,-100.00,North,-999,-999.0,-999.0,-999,-99.99,,,0.00,,2013-07-05 14:59:00,
2013-07-05 09:00:00,60.0,-99.9,-100.00,North,-999,-999.0,-999.0,-999,-99.99,,,0.00,,2013-07-05 15:00:00,
2013-07-05 10:00:00,63.0,-99.9,-100.00,North,-999,-999.0,-999.0,-999,-99.99,,,0.00,,2013-07-05 16:00:00,
2013-07-05 10:54:00,63.0,-99.9,-100.00,North,-999,-999.0,-999.0,-999,-99.99,,,0.00,,2013-07-05 16:54:00,
2013-07-05 11:00:00,63.0,-99.9,-100.00,North,-999,-999.0,-999.0,-999,-99.99,,,-99.99,,2013-07-05 17:00:00,
2013-07-05 12:00:00,64.0,-99.9,-100.00,North,-999,-999.0,-999.0,-999,-99.99,,,0.01,,2013-07-05 18:00:00,
2013-07-05 12:53:00,64.0,-99.9,-100.00,North,-999,-999.0,-999.0,-999,-99.99,,,0.01,,2013-07-05 18:53:00,
2013-07-05 13:00:00,67.0,-99.9,-100.00,North,-999,-999.0,-999.0,-999,-99.99,,,0.00,,2013-07-05 19:00:00,
2013-07-05 14:00:00,70.0,-99.9,-100.00,North,-999,-999.0,-999.0,-999,-99.99,,,0.00,,2013-07-05 20:00:00,
2013-07-05 15:00:00,68.0,-99.9,-100.00,North,-999,-999.0,-999.0,-999,-99.99,,,0.00,,2013-07-05 21:00:00,
2013-07-05 15:53:00,68.0,-99.9,-100.00,North,-999,-999.0,-999.0,-999,-99.99,,,0.00,,2013-07-05 21:53:00,
2013-07-05 16:00:00,69.0,-99.9,-100.00,North,-999,-999.0,-999.0,-999,-99.99,,,0.01,,2013-07-05 22:00:00,
2013-07-05 16:53:00,69.0,-99.9,-100.00,North,-999,-999.0,-999.0,-999,-99.99,,,0.01,,2013-07-05 22:53:00,
2013-07-05 17:00:00,62.0,-99.9,-100.00,North,-999,-999.0,-999.0,-999,-99.99,,,0.00,,2013-07-05 23:00:00,
2013-07-05 18:00:00,50.0,-99.9,-100.00,North,-999,-999.0,-999.0,-999,-99.99,,,0.01,,2013-07-06 00:00:00,
2013-07-05 18:53:00,50.0,-99.9,-100.00,North,-999,-999.0,-999.0,-999,-99.99,,,0.01,,2013-07-06 00:53:00,
2013-07-05 19:00:00,52.0,-99.9,-100.00,North,-999,-999.0,-999.0,-999,-99.99,,,0.01,,2013-07-06 01:00:00,
2013-07-05 21:00:00,50.0,-99.9,-100.00,North,-999,-999.0,-999.0,-999,-99.99,,,0.02,,2013-07-06 03:00:00,
2013-07-05 22:00:00,48.0,-99.9,-100.00,North,-999,-999.0,-999.0,-999,-99.99,,,0.02,,2013-07-06 04:00:00,
2013-07-05 22:53:00,48.0,-99.9,-100.00,North,-999,-999.0,-999.0,-999,-99.99,,,0.02,,2013-07-06 04:53:00,
2013-07-05 23:00:00,47.0,-99.9,-100.00,North,-999,-999.0,-999.0,-999,-99.99,,,0.02,,2013-07-06 05:00:00,
2013-07-05 23:53:00,47.0,-99.9,-100.00,North,-999,-999.0,-999.0,-999,-99.99,,,0.02,,2013-07-06 05:53:00,